Starlink 11146

operational
NORAD ID: 60729 Int'l Des: 2024-152 Owner: SPXS Country: US Constellation: starlink
LEOCIRCULAR

Starlink 11146について

説明を読み込み中...

リアルタイム位置

3D地球を読み込み中...

次回通過

高度履歴

Altitude vs Time

uPlot chart will show altitude changes over time

軌道要素

1 60729U 24152K 25305.62487586 -.00001215 00000-0 -51773-5 0 9998
2 60729 53.1587 27.3666 0001241 91.1234 268.9926 15.69689166 68859
Epoch: Nov 1, 2025 • Age: 24 hours

現在のステータス

高度 359.9 km
速度 7.70 km/s
衛星直下点 6.78°N, 64.38°W
打ち上げ日 Aug 28, 2024
運用期間 1.1 years
タイプ internet

技術仕様

分類 Payload
質量 960.00 kg
乾燥質量 910.00 kg
総質量 960.00 kg
長さ 0.30 m
直径 4.10 m
スパン 29.00 m
形状 Box + pan
製造者 SPXS
バスタイプ Starlink V2MD
フェーズステータス In Orbit
所有者/国 SPXS/US

大規模コンステレーション

Loading constellations...